ASA145 KAFW-KPHX

Flight info

Callsign ASA145
Flight time N/A
Altitude 32000
Route BOTCH1 CIKAN EWM DRRVR PINNG1
Aircraft A333/H-SDE3GHIJ2J3J5M1RVWXY/LB2D1

Departure

Time 2026-04-28 23:16
Airport Perot Field/Fort Worth Alliance Airport (KAFW)

Arrival

Time N/A
Airport Phoenix Sky Harbor International Airport (KPHX)
Time Latitude Longitude Altitude Speed Heading
2026-04-28 23:02 32.98441 -97.32243 703 ft 0 kts 251°
2026-04-28 23:08 32.98448 -97.32221 695 ft 4 kts 244°
2026-04-28 23:08 32.98462 -97.32195 693 ft 5 kts 225°
2026-04-28 23:09 32.98482 -97.32178 695 ft 6 kts 183°
2026-04-28 23:09 32.98490 -97.32178 695 ft 5 kts 171°
2026-04-28 23:11 32.98479 -97.32176 694 ft 4 kts 171°
2026-04-28 23:11 32.98416 -97.32163 694 ft 13 kts 170°
2026-04-28 23:12 32.98310 -97.32141 688 ft 17 kts 171°
2026-04-28 23:12 32.98181 -97.32115 686 ft 21 kts 170°
2026-04-28 23:12 32.98044 -97.32088 685 ft 18 kts 171°
2026-04-28 23:12 32.97974 -97.32005 688 ft 12 kts 97°
2026-04-28 23:13 32.97955 -97.31972 683 ft 4 kts 139°
2026-04-28 23:13 32.97917 -97.31951 685 ft 8 kts 163°
2026-04-28 23:13 32.97840 -97.31931 685 ft 14 kts 171°
2026-04-28 23:13 32.97721 -97.31908 684 ft 20 kts 169°
2026-04-28 23:14 32.97659 -97.31868 684 ft 0 kts 123°
2026-04-28 23:14 32.97655 -97.31856 682 ft 6 kts 109°
2026-04-28 23:14 32.97659 -97.31799 683 ft 6 kts 62°
2026-04-28 23:14 32.97688 -97.31777 683 ft 4 kts 13°
2026-04-28 23:15 32.97757 -97.31783 686 ft 30 kts 354°
2026-04-28 23:15 32.97948 -97.31817 688 ft 17 kts 348°
2026-04-28 23:15 32.98263 -97.31885 693 ft 84 kts 350°
2026-04-28 23:15 32.99100 -97.32057 719 ft 159 kts 351°
2026-04-28 23:16 33.00330 -97.32309 1202 ft 190 kts 351°
2026-04-28 23:16 33.01620 -97.32493 1819 ft 192 kts
2026-04-28 23:16 33.02846 -97.31690 2101 ft 221 kts 47°
2026-04-28 23:16 33.03412 -97.29906 2404 ft 242 kts 88°
2026-04-28 23:17 33.02900 -97.28040 2914 ft 240 kts 129°
2026-04-28 23:17 33.01563 -97.26957 3556 ft 239 kts 164°
2026-04-28 23:17 32.99943 -97.26465 4208 ft 243 kts 170°
2026-04-28 23:17 32.98292 -97.25970 4868 ft 246 kts 168°
2026-04-28 23:18 32.96646 -97.25373 5516 ft 249 kts 166°
2026-04-28 23:18 32.94987 -97.24776 6179 ft 249 kts 174°
2026-04-28 23:18 32.93257 -97.24474 6798 ft 254 kts 178°
2026-04-28 23:18 32.91471 -97.24256 7435 ft 261 kts 180°
2026-04-28 23:19 32.89640 -97.24065 8081 ft 267 kts 180°
2026-04-28 23:19 32.87768 -97.23884 8740 ft 274 kts 181°
2026-04-28 23:19 32.85838 -97.23727 9423 ft 280 kts 185°
2026-04-28 23:19 32.83916 -97.23964 10071 ft 277 kts 202°
2026-04-28 23:20 32.82248 -97.25029 10640 ft 270 kts 227°
2026-04-28 23:20 32.81177 -97.26813 10939 ft 265 kts 249°
2026-04-28 23:20 32.80782 -97.28889 11006 ft 264 kts 267°
2026-04-28 23:20 32.80822 -97.31142 11004 ft 286 kts 272°
2026-04-28 23:21 32.80955 -97.33615 11011 ft 313 kts 272°
2026-04-28 23:21 32.81095 -97.36273 11216 ft 330 kts 272°
2026-04-28 23:21 32.81227 -97.39031 11705 ft 337 kts 272°
2026-04-28 23:21 32.81351 -97.41827 12245 ft 342 kts 272°
2026-04-28 23:22 32.81471 -97.44664 12819 ft 345 kts 272°
2026-04-28 23:22 32.81503 -97.47519 13439 ft 346 kts 265°
2026-04-28 23:22 32.81011 -97.50319 14106 ft 349 kts 251°
2026-04-28 23:22 32.79870 -97.52883 14687 ft 353 kts 240°
2026-04-28 23:23 32.78479 -97.55306 15287 ft 355 kts 238°
2026-04-28 23:23 32.77052 -97.57704 15892 ft 356 kts 238°
2026-04-28 23:23 32.75623 -97.60108 16510 ft 357 kts 238°
2026-04-28 23:23 32.74196 -97.62519 17135 ft 357 kts 238°
2026-04-28 23:24 32.72772 -97.64936 17763 ft 358 kts 238°
2026-04-28 23:24 32.71347 -97.67357 18384 ft 358 kts 238°
2026-04-28 23:24 32.69939 -97.69791 18951 ft 357 kts 240°
2026-04-28 23:24 32.68743 -97.72339 19528 ft 354 kts 248°
2026-04-28 23:25 32.67898 -97.75071 20033 ft 351 kts 256°
2026-04-28 23:25 32.67439 -97.77914 20642 ft 349 kts 263°
2026-04-28 23:25 32.67190 -97.80774 21264 ft 348 kts 265°
2026-04-28 23:25 32.66979 -97.83626 21922 ft 347 kts 265°
2026-04-28 23:26 32.66768 -97.86486 22580 ft 346 kts 265°
2026-04-28 23:26 32.66555 -97.89317 23245 ft 344 kts 265°
2026-04-28 23:26 32.66338 -97.92141 23834 ft 342 kts 265°
2026-04-28 23:26 32.66121 -97.94936 24402 ft 340 kts 265°
2026-04-28 23:27 32.65905 -97.97711 24979 ft 337 kts 265°
2026-04-28 23:27 32.65688 -98.00469 25569 ft 334 kts 265°
2026-04-28 23:27 32.65475 -98.03178 26166 ft 330 kts 265°
2026-04-28 23:27 32.65260 -98.05893 26786 ft 326 kts 265°
2026-04-28 23:28 32.65048 -98.08552 27415 ft 322 kts 265°
2026-04-28 23:28 32.64839 -98.11171 28057 ft 317 kts 265°
2026-04-28 23:28 32.64633 -98.13750 28713 ft 311 kts 265°
2026-04-28 23:28 32.64429 -98.16289 29389 ft 305 kts 265°
2026-04-28 23:29 32.64229 -98.18768 30035 ft 299 kts 265°
2026-04-28 23:29 32.64034 -98.21195 30632 ft 292 kts 266°
2026-04-28 23:29 32.63843 -98.23559 31224 ft 284 kts 266°
2026-04-28 23:29 32.63656 -98.25874 31677 ft 282 kts 266°
2026-04-28 23:30 32.63468 -98.28208 31838 ft 288 kts 267°
2026-04-28 23:30 32.63275 -98.30617 31845 ft 298 kts 267°
2026-04-28 23:30 32.62866 -98.35680 31835 ft 318 kts 266°
2026-04-28 23:31 32.62426 -98.41052 31832 ft 336 kts 266°
2026-04-28 23:31 32.61961 -98.46717 31829 ft 355 kts 266°
2026-04-28 23:32 32.61470 -98.52646 31831 ft 373 kts 266°
2026-04-28 23:32 32.60950 -98.58897 31834 ft 386 kts 266°
2026-04-28 23:33 32.60419 -98.65227 31841 ft 385 kts 266°
2026-04-28 23:33 32.59886 -98.71543 31861 ft 385 kts 266°
2026-04-28 23:34 32.59351 -98.77863 31867 ft 386 kts 265°
2026-04-28 23:34 32.58810 -98.84196 31869 ft 386 kts 265°
2026-04-28 23:35 32.58267 -98.90530 31869 ft 386 kts 265°
2026-04-28 23:35 32.57721 -98.96853 31866 ft 386 kts 265°
2026-04-28 23:36 32.57170 -99.03209 31860 ft 387 kts 265°
2026-04-28 23:36 32.56617 -99.09543 31861 ft 386 kts 265°
2026-04-28 23:37 32.56061 -99.15873 31844 ft 387 kts 265°
2026-04-28 23:37 32.55487 -99.22365 31830 ft 404 kts 265°
2026-04-28 23:38 32.54889 -99.29090 31818 ft 414 kts 265°
2026-04-28 23:38 32.54360 -99.35871 31821 ft 413 kts 267°
2026-04-28 23:39 32.53959 -99.42650 31833 ft 412 kts 267°
2026-04-28 23:39 32.53625 -99.48277 31845 ft 412 kts 267°
2026-04-28 23:40 32.53218 -99.55041 31845 ft 411 kts 267°
2026-04-28 23:40 32.52807 -99.61791 31852 ft 411 kts 267°
2026-04-28 23:41 32.52392 -99.68548 31854 ft 411 kts 267°
2026-04-28 23:41 32.51972 -99.75314 31851 ft 411 kts 267°
2026-04-28 23:42 32.51550 -99.82064 31830 ft 411 kts 267°
2026-04-28 23:42 32.51124 -99.88805 31830 ft 410 kts 267°
2026-04-28 23:43 32.50696 -99.95532 31824 ft 409 kts 267°
2026-04-28 23:43 32.50265 -100.02254 31815 ft 409 kts 266°
2026-04-28 23:44 32.49832 -100.08943 31802 ft 409 kts 266°
2026-04-28 23:44 32.49393 -100.15669 31790 ft 409 kts 266°
2026-04-28 23:45 32.48951 -100.22379 31789 ft 407 kts 266°
2026-04-28 23:45 32.48508 -100.29058 31768 ft 406 kts 266°
2026-04-28 23:46 32.48286 -100.32385 31906 ft 405 kts 266°
2026-04-28 23:46 32.48065 -100.35713 31924 ft 405 kts 266°
2026-04-28 23:46 32.47640 -100.42356 31925 ft 405 kts 266°
2026-04-28 23:47 32.47194 -100.49000 31925 ft 405 kts 266°
2026-04-28 23:47 32.46744 -100.55643 31925 ft 405 kts 266°
2026-04-28 23:48 32.46294 -100.62271 31899 ft 402 kts 266°
2026-04-28 23:48 32.45845 -100.68873 31868 ft 402 kts 266°
2026-04-28 23:49 32.45395 -100.75452 31836 ft 401 kts 266°
2026-04-28 23:49 32.44940 -100.82034 31816 ft 401 kts 266°
2026-04-28 23:50 32.44483 -100.88610 31825 ft 401 kts 266°
2026-04-28 23:50 32.44021 -100.95187 31827 ft 401 kts 266°
2026-04-28 23:51 32.43557 -101.01764 31820 ft 401 kts 266°
2026-04-28 23:51 32.43088 -101.08346 31808 ft 401 kts 266°
2026-04-28 23:52 32.42619 -101.14884 31795 ft 401 kts 266°
2026-04-28 23:52 32.42144 -101.21456 31775 ft 401 kts 266°
2026-04-28 23:53 32.41663 -101.28073 31769 ft 401 kts 266°
2026-04-28 23:53 32.41181 -101.34644 31774 ft 401 kts 266°
2026-04-28 23:54 32.40695 -101.41224 31774 ft 402 kts 266°
2026-04-28 23:54 32.40208 -101.47768 31777 ft 402 kts 266°
2026-04-28 23:55 32.39715 -101.54352 31779 ft 402 kts 266°
2026-04-28 23:55 32.39218 -101.60940 31784 ft 402 kts 266°
2026-04-28 23:56 32.38719 -101.67516 31782 ft 402 kts 265°
2026-04-28 23:56 32.38214 -101.74121 31782 ft 404 kts 265°
2026-04-28 23:57 32.37703 -101.80757 31791 ft 406 kts 265°
2026-04-28 23:57 32.37187 -101.87414 31790 ft 406 kts 265°
2026-04-28 23:58 32.36669 -101.94056 31796 ft 406 kts 265°
2026-04-28 23:58 32.36146 -102.00705 31796 ft 406 kts 265°
2026-04-28 23:59 32.35620 -102.07352 31799 ft 406 kts 265°
2026-04-28 23:59 32.35089 -102.14020 31801 ft 408 kts 265°
2026-04-29 00:00 32.34554 -102.20696 31818 ft 408 kts 265°
2026-04-29 00:00 32.34014 -102.27376 31818 ft 408 kts 265°
2026-04-29 00:01 32.33475 -102.34008 31821 ft 408 kts 265°
2026-04-29 00:01 32.32927 -102.40712 31818 ft 408 kts 265°
2026-04-29 00:02 32.32380 -102.47357 31818 ft 408 kts 265°
2026-04-29 00:02 32.31827 -102.54031 31823 ft 408 kts 265°
2026-04-29 00:03 32.31270 -102.60707 31824 ft 408 kts 265°
2026-04-29 00:03 32.30709 -102.67383 31823 ft 408 kts 265°
2026-04-29 00:04 32.30145 -102.74059 31823 ft 408 kts 265°
2026-04-29 00:04 32.29578 -102.80730 31825 ft 408 kts 265°
2026-04-29 00:05 32.29008 -102.87390 31824 ft 407 kts 265°
2026-04-29 00:05 32.28435 -102.94045 31824 ft 407 kts 265°
2026-04-29 00:06 32.27858 -103.00705 31826 ft 407 kts 265°
2026-04-29 00:06 32.27278 -103.07362 31826 ft 407 kts 265°
2026-04-29 00:07 32.26693 -103.14024 31816 ft 407 kts 265°
2026-04-29 00:07 32.26107 -103.20673 31829 ft 406 kts 265°
2026-04-29 00:08 32.25517 -103.27309 31829 ft 406 kts 265°
2026-04-29 00:08 32.24925 -103.33936 31829 ft 406 kts 265°
2026-04-29 00:09 32.24330 -103.40560 31826 ft 406 kts 265°
2026-04-29 00:09 32.23732 -103.47182 31826 ft 406 kts 265°
2026-04-29 00:10 32.23130 -103.53808 31827 ft 406 kts 264°
2026-04-29 00:10 32.22524 -103.60435 31826 ft 406 kts 264°
2026-04-29 00:11 32.21913 -103.67068 31821 ft 406 kts 264°
2026-04-29 00:12 32.20992 -103.77016 31822 ft 406 kts 264°
2026-04-29 00:12 32.20373 -103.83639 31821 ft 406 kts 264°
2026-04-29 00:13 32.19751 -103.90270 31818 ft 407 kts 264°
2026-04-29 00:13 32.19125 -103.96911 31818 ft 407 kts 264°
2026-04-29 00:14 32.18493 -104.03561 31819 ft 407 kts 264°
2026-04-29 00:14 32.17859 -104.10211 31905 ft 407 kts 264°
2026-04-29 00:15 32.17221 -104.16851 31918 ft 407 kts 264°
2026-04-29 00:15 32.16580 -104.23495 31916 ft 408 kts 264°
2026-04-29 00:16 32.15931 -104.30181 31921 ft 411 kts 264°
2026-04-29 00:16 32.15280 -104.36853 31925 ft 412 kts 264°
2026-04-29 00:17 32.14621 -104.43565 31901 ft 412 kts 264°
2026-04-29 00:17 32.13958 -104.50274 31890 ft 412 kts 263°
2026-04-29 00:18 32.13293 -104.56978 31884 ft 411 kts 264°
2026-04-29 00:18 32.12625 -104.63681 31861 ft 412 kts 263°
2026-04-29 00:19 32.11954 -104.70389 31864 ft 412 kts 263°
2026-04-29 00:19 32.11278 -104.77099 31866 ft 411 kts 263°
2026-04-29 00:20 32.10596 -104.83800 31866 ft 411 kts 263°
2026-04-29 00:20 32.09913 -104.90497 31867 ft 411 kts 263°
2026-04-29 00:21 32.09227 -104.97205 31869 ft 411 kts 263°
2026-04-29 00:21 32.08537 -105.03890 31870 ft 410 kts 263°
2026-04-29 00:22 32.07846 -105.10560 31865 ft 410 kts 263°
2026-04-29 00:22 32.07156 -105.17187 31864 ft 410 kts 263°
2026-04-29 00:23 32.06644 -105.22090 31857 ft 410 kts 263°
2026-04-29 00:23 32.06190 -105.26415 31859 ft 410 kts 263°
2026-04-29 00:24 32.05489 -105.33070 31859 ft 408 kts 263°
2026-04-29 00:24 32.04787 -105.39696 31863 ft 407 kts 263°
2026-04-29 00:25 32.04083 -105.46303 31862 ft 406 kts 263°
2026-04-29 00:25 32.03376 -105.52901 31876 ft 405 kts 263°
2026-04-29 00:26 32.02667 -105.59489 31871 ft 406 kts 263°
2026-04-29 00:26 32.02070 -105.65017 31894 ft 406 kts 263°
2026-04-29 00:27 32.01367 -105.71514 31881 ft 405 kts 263°
2026-04-29 00:27 32.00650 -105.78093 31881 ft 405 kts 263°
2026-04-29 00:28 31.99929 -105.84669 31887 ft 405 kts 263°
2026-04-29 00:28 31.99204 -105.91248 31886 ft 405 kts 263°
2026-04-29 00:29 31.98477 -105.97823 31882 ft 405 kts 263°
2026-04-29 00:29 31.97746 -106.04399 31907 ft 405 kts 262°
2026-04-29 00:30 31.97013 -106.10964 31929 ft 405 kts 262°
2026-04-29 00:30 31.96276 -106.17531 31959 ft 405 kts 262°
2026-04-29 00:31 31.95546 -106.24108 31987 ft 405 kts 264°
2026-04-29 00:31 31.95524 -106.30722 32008 ft 406 kts 272°
2026-04-29 00:32 31.96050 -106.37351 32014 ft 407 kts 273°
2026-04-29 00:32 31.96611 -106.43986 32003 ft 408 kts 273°
2026-04-29 00:33 31.97173 -106.50643 31983 ft 409 kts 273°
2026-04-29 00:33 31.97732 -106.57301 32004 ft 408 kts 273°
2026-04-29 00:34 31.98287 -106.63954 32028 ft 408 kts 273°
2026-04-29 00:34 31.98838 -106.70604 32015 ft 408 kts 273°
2026-04-29 00:35 31.99387 -106.77270 32019 ft 409 kts 273°
2026-04-29 00:35 31.99933 -106.83946 31993 ft 410 kts 273°
2026-04-29 00:36 32.00476 -106.90621 31920 ft 409 kts 273°
2026-04-29 00:36 32.01016 -106.97304 31927 ft 409 kts 273°
2026-04-29 00:37 32.01550 -107.03965 31920 ft 409 kts 273°
2026-04-29 00:37 32.02082 -107.10638 31907 ft 408 kts 273°
2026-04-29 00:38 32.02608 -107.17289 31885 ft 408 kts 273°
2026-04-29 00:38 32.03129 -107.23905 31870 ft 408 kts 273°
2026-04-29 00:39 32.03648 -107.30559 31871 ft 408 kts 273°
2026-04-29 00:39 32.04168 -107.37258 31875 ft 408 kts 273°
2026-04-29 00:40 32.04678 -107.43877 31906 ft 407 kts 273°
2026-04-29 00:40 32.05186 -107.50521 31939 ft 406 kts 273°
2026-04-29 00:41 32.05690 -107.57155 31964 ft 406 kts 272°
2026-04-29 00:41 32.06188 -107.63782 31987 ft 406 kts 272°
2026-04-29 00:42 32.06686 -107.70427 31994 ft 407 kts 273°
2026-04-29 00:42 32.07181 -107.77061 31997 ft 407 kts 273°
2026-04-29 00:43 32.07673 -107.83728 31897 ft 409 kts 273°
2026-04-29 00:43 32.08164 -107.90422 31906 ft 410 kts 273°
2026-04-29 00:44 32.08651 -107.97106 31903 ft 409 kts 272°
2026-04-29 00:44 32.09131 -108.03754 31908 ft 409 kts 272°
2026-04-29 00:45 32.09611 -108.10445 31905 ft 409 kts 272°
2026-04-29 00:45 32.10087 -108.17135 31906 ft 409 kts 272°
2026-04-29 00:46 32.10560 -108.23827 31905 ft 410 kts 272°
2026-04-29 00:46 32.11030 -108.30525 31906 ft 410 kts 272°
2026-04-29 00:47 32.11496 -108.37221 31918 ft 410 kts 272°
2026-04-29 00:47 32.11959 -108.43926 31937 ft 410 kts 272°
2026-04-29 00:48 32.12418 -108.50618 31960 ft 409 kts 272°
2026-04-29 00:48 32.12872 -108.57307 31983 ft 409 kts 272°
2026-04-29 00:49 32.13324 -108.63997 31998 ft 409 kts 272°